{"data":{"norad_id":46320,"epoch":"2026-09-20T04:06:01.149696Z","epoch_age_seconds":68331,"freshness":"FRESH","line1":"1 46320U 20061BA  26263.17084664  .00146685  00000+0  59155-3 0  9996","line2":"2 46320  97.2323 341.5005 0002315 217.6386 142.4723 15.85989076336693","mean_motion":15.85989076,"eccentricity":0.0002315,"inclination_deg":97.2323,"raan_deg":341.5005,"arg_perigee_deg":217.6386,"mean_anomaly_deg":142.4723,"bstar":0.00059155,"rev_number":33669,"period_min":90.795076825611,"perigee_km":311.99206318069,"apogee_km":315.09031018112,"semimajor_km":6691.6781866809,"source":"CELESTRAK","updated_at":"2026-09-20T09:00:14.754563Z"}}